Regional Weather Roundup
Issued by NWS

Home | Current Version | Previous Version | Graphics & Text | Print | Product List | Glossary On
Versions: 1 2 3 4 5 6 7 8 9 10 11 12 13 14 15 16 17 18 19 20 21 22 23 24 25 26 27 28 29 30 31 32 33 34 35 36 37 38 39 40 41 42 43 44 45 46 47 48 49 50
306
ASUS43 KLOT 191903
RWRIL

ILLINOIS REGIONAL WEATHER ROUNDUP
NATIONAL WEATHER SERVICE CHICAGO/ROMEOVILLE IL
100 PM CST SUN FEB 19 2017

NOTE: "FAIR" INDICATES FEW OR NO CLOUDS BELOW 12,000 FEET WITH NO
SIGNIFICANT WEATHER AND/OR OBSTRUCTIONS TO VISIBILITY.

* THESE STATIONS ARE NOT UNDER NWS QUALITY CONTROL. THEY ALSO MAY NOT
  REPORT WEATHER SUCH AS PRECIPITATION OR FOG.

ILZ001-002-007-009-015-016-024-192000-
NORTHWEST ILLINOIS

CITY           SKY/WX    TMP DP  RH WIND       PRES   REMARKS
MOLINE         SUNNY     71  37  28 S8        29.99F
STERLING*      SUNNY     65  43  44 SE7       30.03F
SAVANNA*       SUNNY     62  42  47 CALM      30.01F
$$

ILZ003-004-008-010-011-017-018-192000-
NORTH CENTRAL ILLINOIS

CITY           SKY/WX    TMP DP  RH WIND       PRES   REMARKS
ROCKFORD       PTSUNNY   65  38  36 S7        30.06F
FREEPORT*      MOSUNNY   61  40  46 S7        30.05F
DE KALB*       SUNNY     64  38  39 S9        30.06S
PERU*          SUNNY     65  34  31 SW5       30.04F
$$

ILZ005-006-012>014-019>023-192000-
NORTHEAST ILLINOIS

CITY           SKY/WX    TMP DP  RH WIND       PRES   REMARKS
CHICAGO-OHARE  MOSUNNY   65  28  24 CALM      30.04F
CHICAGO-MIDWAY MOSUNNY   64  28  25 S3        30.05F
AURORA         SUNNY     66  38  35 VRB6      30.05F
LANSING*       SUNNY     64  40  40 CALM      30.05F
JOLIET*        SUNNY     67  41  39 S7        30.06R
WAUKEGAN       SUNNY     55  32  41 E8        30.06R
DUPAGE AIRPORT SUNNY     66  34  30 VRB3      30.04F
KANKAKEE*      SUNNY     61  40  45 SE3       30.07S
WHEELING       SUNNY     63  29  27 SE6       30.06F
MORRIS*        SUNNY     64  40  40 S6        30.04S
ROMEOVILLE*    SUNNY     64  44  46 W6        30.05S
NORTHERLY ISL    N/A     52  30  43 CALM        N/A
$$

LMZ740>746-192000-
SOUTHERN LAKE MICHIGAN

STATION/POSITION SKY/WX   TEMP    WIND        PRES    VSBY  WAVE
                          AIR SEA DIR/SP/G                  HT/PER
                          (F)     (DEG/KT/KT) (MB)    (MI)  (FT/S)
HARRISON CRIB              51     100/  4/  4   N/A
BURNHAM HARBOR             53      30/  3/  3   N/A
CALUMET HARBOR             51      50/  5/  6 1017.5F
BURNS HARBOR               46      40/  5/  6 1018.6F
MICHIGAN CITY              45     320/  6/  7   N/A
$$

ILZ025>027-034>036-040-047-049-050-058-095>099-192000-
WEST-CENTRAL ILLINOIS

CITY           SKY/WX    TMP DP  RH WIND       PRES   REMARKS
QUINCY         SUNNY     69  49  48 S6        30.01F
GALESBURG*     SUNNY     69  41  36 S8        30.01F
MACOMB*        SUNNY     69  46  43 S7        30.04F
JACKSONVILLE*  SUNNY     68  49  49 SE5       30.03F
PITTSFIELD*    SUNNY     71  49  46 S5        30.03F
$$

ILZ028>032-037-038-041>044-048-051>054-059>061-192000-
CENTRAL ILLINOIS

CITY           SKY/WX    TMP DP  RH WIND       PRES   REMARKS
PONTIAC        SUNNY     67  42  39 S3        30.05F
BLOOMINGTON    SUNNY     62  47  57 S8        30.06F
DECATUR        SUNNY     62  49  62 SW3       30.06F
PEORIA         SUNNY     63  44  50 S7        30.04F
LACON*         SUNNY     66  39  36 SW9       30.03S
LINCOLN*       SUNNY     61  52  71 S6        30.05F
SPRINGFIELD    SUNNY     64  50  60 SE9       30.05F
TAYLORVILLE    SUNNY     61  51  70 CALM      30.06S
$$

ILZ033-039-045-046-055>057-062-063-192000-
EAST-CENTRAL ILLINOIS

CITY           SKY/WX    TMP DP  RH WIND       PRES   REMARKS
CHAMPAIGN      SUNNY     64  48  56 S7        30.06F
RANTOUL*       SUNNY     61  49  64 S5        30.07S
MATTOON        SUNNY     59  51  75 S9        30.06F HAZE
PARIS*         SUNNY     61  49  65 S3        30.08F
$$

ILZ079-100>102-192000-
SOUTHWEST ILLINOIS

CITY           SKY/WX    TMP DP  RH WIND       PRES   REMARKS
ALTON          SUNNY     63  52  67 E3        30.06F
BELLEVILLE     MOSUNNY   55  55 100 VRB5      30.07F
CAHOKIA*       SUNNY     66  53  63 SE9       30.05F
SPARTA*        SUNNY     60  55  83 SE5       30.08F
$$

ILZ064>066-069>071-074>076-080>082-084>086-088>090-092>094-192000-
SOUTH-CENTRAL ILLINOIS

CITY           SKY/WX    TMP DP  RH WIND       PRES   REMARKS
CARBONDALE     SUNNY     60  54  80 SE5       30.09F
CAIRO*         CLOUDY    53  53 100 CALM      30.10F
EFFINGHAM*     CLOUDY    57  53  86 SE3       30.09F FOG
MARION         CLOUDY    59  59 100 S6        30.10F FOG
MT. VERNON     CLOUDY    60  52  74 SW7       30.09F
CENTRALIA*     SUNNY     65  54  69 S5        30.07F
SALEM*         SUNNY     64  52  65 CALM      30.08F
METROPOLIS*    CLOUDY    53  52  97 CALM      30.11F
$$

ILZ067-068-072-073-078-083-087-091-192000-
SOUTHEAST ILLINOIS

CITY           SKY/WX    TMP DP  RH WIND       PRES   REMARKS
LAWRENCEVILLE  CLOUDY    55  49  80 S5        30.11S HAZE
FLORA*         CLOUDY    56  52  84 S5        30.10S HAZE
FAIRFIELD*     CLOUDY    54  52  92 S5        30.10S FOG
HARRISBURG*    CLOUDY    54  52  93 CALM      30.11F FOG
ROBINSON*      SUNNY     58  49  72 S7        30.10F
CARMI*         CLOUDY    53  52  97 S3        30.11R FOG
$$

ABBREVIATIONS USED IN REMARKS
   TC - TEMPERATURE IN CELSIUS
  WCI - WIND CHILL INDEX
   HX - HEAT INDEX
  VSB - VISIBILITY
$$





USA.gov is the U.S. government's official web portal to all federal, state and local government web resources and services.